QPF
0.01 0.01 0.00 0.00 0.00 0.00 0.00 0.00 0.01 0.00 0.00 0.00 0.00 0.00 0.00 0.00 0.00 0.00 0.00 0.00 0.00 0.00 0.00 0.00 0.01 0.00 0.00 0.00 0.00 0.00 0.00 0.00 0.00 0.00 0.00 0.02 0.06 0.04 0.01 0.00 0.01 0.00 0.02
0.00 0.00 0.00 0.00 0.00 0.00 0.00 0.00 0.00 0.00 0.00 0.00 0.00 0.00 0.00 0.00 0.00 0.00 0.00 0.00 0.00 0.00 0.00 0.00 0.00 0.00 0.00 0.00 0.00 0.00 0.00 0.00 0.00 0.00 0.00 0.00 0.00 0.02 0.00 0.01 0.01 0.00 0.01
0.00 0.00 0.00 0.00 0.00 0.00 0.00 0.00 0.00 0.00 0.00 0.00 0.00 0.00 0.00 0.00 0.00 0.00 0.00 0.00 0.00 0.00 0.00 0.00 0.00 0.00 0.00 0.00 0.00 0.00 0.00 0.00 0.00 0.00 0.00 0.00 0.00 0.01 0.00 0.00 0.00 0.00 0.00
0.00 0.00 0.00 0.00 0.00 0.00 0.00 0.00 0.00 0.00 0.00 0.00 0.00 0.00 0.00 0.00 0.00 0.00 0.00 0.00 0.00 0.00 0.00 0.00 0.00 0.00 0.00 0.00 0.00 0.00 0.00 0.00 0.00 0.00 0.00 0.00 0.00 0.00 0.00 0.00 0.00 0.00 0.00
0.00 0.00 0.00 0.00 0.00 0.00 0.00 0.00 0.00 0.00 0.00 0.00 0.00 0.00 0.00 0.00 0.00 0.00 0.00 0.00 0.00 0.00 0.00 0.00 0.00 0.00 0.00 0.00 0.00 0.00 0.00 0.00 0.00 0.00 0.00 0.00 0.00 0.00 0.00 0.00 0.00 0.00 0.00
0.00 0.00 0.00 0.00 0.00 0.00 0.00 0.00 0.00 0.00 0.00 0.00 0.00 0.00 0.00 0.00 0.00 0.00 0.00 0.00 0.00 0.00 0.00 0.00 0.00 0.00 0.00 0.00 0.00 0.00 0.00 0.00 0.00 0.00 0.00 0.00 0.00 0.00 0.00 0.00 0.00 0.00 0.00
0.00 0.00 0.00 0.00 0.00 0.00 0.00 0.00 0.00 0.00 0.00 0.00 0.00 0.00 0.00 0.00 0.00 0.00 0.00 0.00 0.00 0.00 0.00 0.00 0.00 0.00 0.00 0.00 0.00 0.00 0.00 0.00 0.00 0.00 0.00 0.00 0.00 0.01 0.00 0.00 0.01 0.00 0.00
0.00 0.00 0.00 0.00 0.00 0.00 0.00 0.00 0.00 0.00 0.00 0.00 0.00 0.00 0.00 0.00 0.00 0.00 0.00 0.00 0.00 0.00 0.00 0.00 0.00 0.00 0.00 0.00 0.00 0.00 0.00 0.00 0.00 0.00 0.00 0.00 0.00 0.00 0.00 0.00 0.00 0.00 0.00
0.00 0.00 0.00 0.00 0.00 0.00 0.00 0.00 0.00 0.00 0.00 0.00 0.00 0.00 0.00 0.00 0.00 0.00 0.00 0.00 0.00 0.00 0.00 0.00 0.00 0.00 0.00 0.00 0.00 0.00 0.00 0.00 0.00 0.00 0.00 0.00 0.00 0.00 0.00 0.00 0.00 0.00 0.00
0.00 0.00 0.00 0.00 0.00 0.00 0.00 0.00 0.00 0.00 0.00 0.00 0.00 0.00 0.00 0.00 0.00 0.00 0.00 0.00 0.00 0.00 0.00 0.00 0.00 0.00 0.00 0.00 0.00 0.00 0.00 0.00 0.00 0.00 0.00 0.00 0.01 0.00 0.00 0.00 0.00 0.00 0.00
0.00 0.00 0.00 0.00 0.00 0.00 0.00 0.00 0.00 0.00 0.00 0.00 0.00 0.00 0.00 0.00 0.00 0.00 0.00 0.00 0.00 0.00 0.00 0.00 0.00 0.00 0.00 0.00 0.00 0.00 0.00 0.00 0.00 0.00 0.00 0.01 0.04 0.00 0.00 0.00 0.00 0.00 0.00
0.00 0.00 0.00 0.00 0.00 0.00 0.00 0.00 0.00 0.00 0.00 0.00 0.00 0.00 0.00 0.00 0.00 0.00 0.00 0.00 0.00 0.00 0.00 0.00 0.00 0.00 0.00 0.00 0.00 0.00 0.00 0.00 0.00 0.00 0.00 0.00 0.02 0.00 0.00 0.00 0.00 0.00 0.00
0.00 0.00 0.00 0.00 0.00 0.00 0.00 0.00 0.00 0.00 0.00 0.00 0.00 0.00 0.00 0.00 0.00 0.00 0.00 0.00 0.00 0.00 0.00 0.00 0.00 0.00 0.00 0.00 0.00 0.00 0.00 0.00 0.00 0.00 0.00 0.00 0.00 0.00 0.00 0.00 0.00 0.00 0.00
0.00 0.00 0.00 0.00 0.00 0.00 0.00 0.00 0.00 0.00 0.00 0.00 0.00 0.00 0.00 0.00 0.00 0.00 0.00 0.00 0.00 0.00 0.00 0.00 0.00 0.00 0.00 0.00 0.00 0.00 0.00 0.00 0.00 0.00 0.00 0.00 0.00 0.00 0.00 0.00 0.00 0.00 0.00
0.00 0.00 0.00 0.00 0.00 0.00 0.00 0.00 0.00 0.00 0.00 0.00 0.00 0.00 0.00 0.00 0.00 0.00 0.00 0.00 0.00 0.00 0.00 0.00 0.00 0.00 0.00 0.00 0.00 0.00 0.00 0.00 0.00 0.00 0.00 0.00 0.00 0.00 0.00 0.00 0.00 0.00 0.00
0.00 0.00 0.00 0.00 0.00 0.00 0.00 0.00 0.00 0.00 0.00 0.00 0.00 0.00 0.00 0.00 0.00 0.00 0.00 0.00 0.00 0.00 0.00 0.00 0.00 0.00 0.00 0.00 0.00 0.00 0.00 0.00 0.00 0.00 0.00 0.00 0.00 0.00 0.00 0.00 0.00 0.00 0.00
0.00 0.00 0.00 0.00 0.00 0.00 0.00 0.00 0.00 0.00 0.00 0.00 0.00 0.00 0.00 0.00 0.00 0.00 0.00 0.00 0.00 0.00 0.00 0.00 0.00 0.00 0.00 0.00 0.00 0.00 0.00 0.00 0.00 0.00 0.00 0.00 0.00 0.00 0.00 0.00 0.00 0.00 0.00
0.00 0.00 0.00 0.00 0.00 0.00 0.00 0.00 0.00 0.00 0.00 0.00 0.00 0.00 0.00 0.00 0.00 0.00 0.00 0.00 0.00 0.00 0.00 0.00 0.00 0.00 0.00 0.00 0.00 0.00 0.00 0.00 0.00 0.00 0.00 0.00 0.00 0.00 0.00 0.00 0.00 0.00 0.00
0.00 0.00 0.00 0.00 0.00 0.00 0.00 0.00 0.00 0.00 0.00 0.00 0.00 0.00 0.00 0.00 0.00 0.00 0.00 0.00 0.00 0.00 0.00 0.00 0.00 0.00 0.00 0.00 0.00 0.00 0.00 0.00 0.00 0.00 0.00 0.00 0.00 0.00 0.00 0.00 0.00 0.00 0.00
0.00 0.00 0.00 0.00 0.00 0.00 0.00 0.00 0.00 0.00 0.00 0.00 0.00 0.00 0.00 0.00 0.00 0.00 0.00 0.00 0.00 0.00 0.00 0.00 0.00 0.00 0.00 0.00 0.00 0.00 0.00 0.00 0.00 0.00 0.00 0.00 0.00 0.00 0.00 0.00 0.00 0.00 0.00
0.00 0.00 0.00 0.00 0.00 0.00 0.00 0.00 0.00 0.00 0.00 0.00 0.00 0.00 0.00 0.00 0.00 0.00 0.00 0.00 0.00 0.00 0.00 0.00 0.00 0.00 0.00 0.00 0.00 0.00 0.00 0.00 0.00 0.00 0.00 0.00 0.00 0.00 0.00 0.00 0.00 0.00 0.00
0.00 0.00 0.00 0.00 0.00 0.00 0.00 0.00 0.00 0.00 0.00 0.00 0.00 0.00 0.00 0.00 0.00 0.00 0.00 0.00 0.00 0.00 0.00 0.00 0.00 0.00 0.00 0.00 0.00 0.00 0.00 0.00 0.00 0.00 0.00 0.00 0.00 0.00 0.00 0.00 0.00 0.00 0.00
0.00 0.00 0.00 0.00 0.00 0.00 0.00 0.00 0.00 0.00 0.00 0.00 0.00 0.00 0.00 0.00 0.00 0.00 0.00 0.00 0.00 0.00 0.00 0.00 0.00 0.00 0.00 0.00 0.00 0.00 0.00 0.00 0.00 0.00 0.00 0.00 0.00 0.00 0.00 0.00 0.00 0.00 0.00
0.00 0.00 0.00 0.00 0.00 0.00 0.00 0.00 0.00 0.00 0.00 0.00 0.00 0.00 0.00 0.00 0.00 0.00 0.00 0.00 0.00 0.00 0.00 0.00 0.00 0.00 0.00 0.00 0.00 0.00 0.00 0.00 0.00 0.00 0.00 0.00 0.00 0.00 0.00 0.00 0.00 0.00 0.00
0.00 0.00 0.00 0.00 0.00 0.00 0.00 0.00 0.00 0.00 0.00 0.00 0.00 0.00 0.00 0.00 0.00 0.00 0.00 0.00 0.00 0.00 0.00 0.00 0.00 0.00 0.00 0.00 0.00 0.00 0.00 0.00 0.00 0.00 0.00 0.00 0.00 0.00 0.00 0.00 0.00 0.00 0.00
0.00 0.00 0.00 0.00 0.00 0.00 0.00 0.00 0.00 0.00 0.00 0.00 0.00 0.00 0.00 0.00 0.00 0.00 0.00 0.00 0.00 0.00 0.00 0.00 0.00 0.00 0.00 0.00 0.00 0.00 0.00 0.00 0.00 0.00 0.00 0.00 0.00 0.00 0.00 0.00 0.00 0.00 0.00
MSLP
1016.96 1016.77 1016.84 1016.96 1017.15 1017.22 1017.30 1017.46 1017.56 1017.58 1017.57 1017.55 1017.60 1017.58 1017.70 1017.67 1017.58 1017.61 1017.61 1017.55 1017.57 1017.57 1017.42 1017.41 1017.43 1017.48 1017.46 1017.57 1017.49 1017.43 1017.35 1017.38 1017.32 1017.25 1017.21 1017.11 1017.06 1017.06 1017.03 1017.09 1017.13 1017.13 1017.10
1016.26 1016.75 1016.85 1016.96 1017.18 1017.31 1017.42 1017.56 1017.72 1017.80 1017.79 1017.78 1017.82 1017.77 1017.81 1017.87 1017.90 1017.92 1017.95 1017.98 1018.00 1018.03 1017.90 1017.80 1017.89 1017.83 1017.76 1017.85 1017.84 1017.77 1017.63 1017.53 1017.54 1017.52 1017.52 1017.44 1017.42 1017.39 1017.36 1017.36 1017.28 1017.35 1017.38
1016.27 1016.71 1016.87 1016.98 1017.16 1017.39 1017.55 1017.68 1017.81 1017.87 1017.90 1017.95 1017.97 1017.96 1018.06 1018.21 1018.20 1018.21 1018.26 1018.33 1018.38 1018.36 1018.38 1018.39 1018.39 1018.28 1018.18 1018.19 1018.08 1018.03 1017.90 1017.61 1017.65 1017.75 1017.81 1017.84 1017.75 1017.66 1017.63 1017.61 1017.55 1017.61 1017.57
1016.20 1016.70 1016.93 1017.05 1017.23 1017.43 1017.57 1017.69 1017.83 1017.93 1018.00 1018.06 1018.16 1018.24 1018.33 1018.47 1018.54 1018.55 1018.64 1018.70 1018.70 1018.72 1018.75 1018.81 1018.83 1018.73 1018.63 1018.54 1018.41 1018.39 1018.27 1018.15 1018.12 1018.16 1018.25 1018.11 1017.94 1017.91 1017.81 1017.77 1017.83 1017.89 1017.88
1016.43 1016.73 1017.06 1017.18 1017.28 1017.42 1017.61 1017.79 1017.89 1018.03 1018.11 1018.22 1018.30 1018.45 1018.57 1018.70 1018.81 1018.91 1019.01 1019.04 1019.08 1019.09 1019.09 1019.16 1019.19 1019.14 1019.03 1018.88 1018.79 1018.72 1018.71 1018.66 1018.61 1018.61 1018.54 1018.45 1018.36 1018.14 1018.08 1018.16 1018.14 1018.14 1018.10
1016.58 1016.88 1017.13 1017.25 1017.42 1017.59 1017.74 1017.87 1017.99 1018.12 1018.25 1018.40 1018.49 1018.62 1018.77 1018.87 1019.05 1019.21 1019.28 1019.30 1019.38 1019.34 1019.31 1019.33 1019.37 1019.37 1019.29 1019.17 1019.02 1019.02 1019.11 1019.00 1019.06 1019.04 1018.94 1018.81 1018.59 1018.37 1018.38 1018.41 1018.41 1018.42 1018.36
1016.95 1017.03 1017.26 1017.40 1017.57 1017.75 1017.91 1018.04 1018.18 1018.30 1018.45 1018.57 1018.70 1018.83 1018.94 1019.09 1019.23 1019.40 1019.49 1019.49 1019.45 1019.44 1019.49 1019.51 1019.53 1019.47 1019.43 1019.34 1019.31 1019.36 1019.45 1019.36 1019.40 1019.38 1019.35 1019.20 1019.00 1018.77 1018.74 1018.74 1018.76 1018.70 1018.64
1016.93 1017.17 1017.35 1017.51 1017.69 1017.94 1018.12 1018.26 1018.39 1018.53 1018.63 1018.74 1018.84 1018.94 1019.09 1019.29 1019.40 1019.53 1019.61 1019.65 1019.66 1019.71 1019.78 1019.77 1019.72 1019.69 1019.68 1019.59 1019.51 1019.55 1019.64 1019.73 1019.69 1019.67 1019.63 1019.50 1019.31 1019.20 1019.20 1019.12 1018.99 1018.93 1018.95
1016.85 1017.24 1017.53 1017.69 1017.87 1018.09 1018.25 1018.41 1018.56 1018.64 1018.80 1018.92 1019.02 1019.12 1019.21 1019.46 1019.60 1019.71 1019.77 1019.86 1019.93 1019.97 1020.03 1020.01 1019.97 1019.94 1019.84 1019.74 1019.71 1019.65 1019.59 1019.71 1019.81 1019.82 1019.73 1019.73 1019.58 1019.53 1019.49 1019.40 1019.30 1019.26 1019.21
1017.16 1017.35 1017.68 1017.88 1018.08 1018.26 1018.41 1018.58 1018.77 1018.93 1019.07 1019.25 1019.37 1019.52 1019.63 1019.80 1019.87 1019.98 1020.04 1020.07 1020.14 1020.21 1020.26 1020.21 1020.20 1020.17 1020.13 1020.03 1020.06 1019.98 1019.81 1019.77 1020.04 1020.08 1020.05 1019.88 1019.72 1019.69 1019.70 1019.68 1019.57 1019.56 1019.54
1017.47 1017.57 1017.70 1018.00 1018.29 1018.56 1018.73 1018.90 1019.03 1019.15 1019.30 1019.51 1019.70 1019.86 1019.91 1020.07 1020.18 1020.31 1020.37 1020.36 1020.39 1020.35 1020.38 1020.29 1020.23 1020.21 1020.13 1020.16 1020.21 1020.17 1020.13 1020.28 1020.29 1020.40 1020.31 1020.07 1019.93 1019.97 1020.01 1019.98 1019.86 1019.71 1019.66
1017.61 1017.73 1017.76 1018.02 1018.39 1018.69 1018.80 1019.05 1019.22 1019.40 1019.57 1019.76 1019.94 1020.11 1020.19 1020.08 1020.15 1020.33 1020.51 1020.52 1020.45 1020.38 1020.36 1020.30 1020.22 1020.18 1020.10 1020.21 1020.26 1020.29 1020.38 1020.40 1020.53 1020.64 1020.53 1020.35 1020.22 1020.20 1020.24 1020.19 1020.07 1019.94 1019.85
1017.43 1017.72 1017.91 1018.06 1018.38 1018.68 1018.89 1019.32 1019.49 1019.61 1019.80 1019.91 1019.98 1020.09 1020.16 1020.15 1020.28 1020.41 1020.49 1020.46 1020.49 1020.37 1020.37 1020.37 1020.35 1020.41 1020.31 1020.37 1020.46 1020.40 1020.49 1020.60 1020.67 1020.67 1020.59 1020.53 1020.43 1020.43 1020.38 1020.34 1020.24 1020.11 1019.94
1017.37 1017.57 1017.77 1017.90 1018.23 1018.54 1018.80 1019.11 1019.27 1019.56 1019.63 1019.78 1019.76 1019.81 1020.03 1020.29 1020.47 1020.53 1020.48 1020.58 1020.62 1020.44 1020.53 1020.72 1020.69 1020.62 1020.52 1020.41 1020.36 1020.42 1020.62 1020.72 1020.82 1020.85 1020.84 1020.72 1020.56 1020.52 1020.49 1020.38 1020.27 1020.14 1020.05
1017.11 1017.29 1017.44 1017.57 1017.96 1018.27 1018.65 1018.86 1019.08 1019.36 1019.48 1019.56 1019.72 1019.84 1020.00 1020.31 1020.45 1020.26 1020.33 1020.54 1020.58 1020.79 1020.91 1021.10 1021.10 1021.09 1021.04 1020.92 1020.85 1020.79 1020.89 1020.94 1020.96 1020.99 1021.01 1020.80 1020.71 1020.69 1020.59 1020.47 1020.37 1020.26 1020.14
1016.45 1016.77 1017.04 1017.39 1017.50 1017.91 1018.34 1018.65 1018.87 1019.08 1019.19 1019.48 1019.66 1019.76 1019.98 1020.24 1020.40 1020.23 1020.52 1020.97 1021.05 1021.11 1021.20 1021.31 1021.29 1021.25 1021.25 1021.14 1021.02 1020.92 1020.96 1020.97 1020.96 1020.97 1020.95 1020.98 1020.89 1020.82 1020.69 1020.56 1020.47 1020.35 1020.16
1015.59 1016.04 1016.60 1017.03 1017.25 1017.69 1018.08 1018.45 1018.72 1018.89 1019.18 1019.46 1019.64 1019.63 1019.81 1019.99 1020.24 1020.33 1020.71 1021.00 1021.19 1021.34 1021.40 1021.48 1021.47 1021.53 1021.60 1021.47 1021.52 1021.37 1021.20 1021.10 1021.08 1021.03 1021.01 1021.03 1021.00 1021.00 1021.00 1020.89 1020.75 1020.56 1020.34
1015.07 1015.66 1016.22 1016.72 1017.19 1017.60 1017.86 1018.21 1018.48 1018.69 1019.00 1019.22 1019.41 1019.57 1019.71 1019.89 1020.14 1020.51 1020.86 1021.16 1021.29 1021.35 1021.48 1021.70 1021.86 1021.99 1022.06 1022.06 1021.96 1021.80 1021.59 1021.36 1021.22 1021.13 1021.08 1021.14 1021.21 1021.20 1021.13 1020.94 1020.88 1020.76 1020.53
1014.55 1015.15 1015.88 1016.38 1016.90 1017.38 1017.72 1018.18 1018.49 1018.73 1019.01 1019.26 1019.43 1019.62 1019.76 1019.97 1020.25 1020.60 1020.95 1021.18 1021.34 1021.55 1021.73 1021.89 1022.12 1022.19 1022.27 1022.20 1022.08 1021.96 1021.85 1021.79 1021.62 1021.36 1021.30 1021.23 1021.22 1021.27 1021.24 1021.12 1021.08 1020.93 1020.75
1014.08 1014.61 1015.29 1016.01 1016.64 1017.17 1017.61 1018.07 1018.53 1018.90 1019.15 1019.37 1019.57 1019.73 1019.82 1020.02 1020.24 1020.59 1020.88 1021.09 1021.26 1021.54 1021.79 1021.86 1022.02 1022.11 1022.15 1022.16 1021.98 1021.83 1021.69 1021.61 1021.58 1021.58 1021.47 1021.34 1021.36 1021.32 1021.32 1021.30 1021.24 1021.10 1020.82
1014.11 1014.55 1015.03 1015.79 1016.37 1017.06 1017.74 1018.39 1018.85 1019.22 1019.43 1019.61 1019.61 1019.58 1019.73 1019.95 1020.17 1020.45 1020.71 1020.90 1021.06 1021.30 1021.45 1021.66 1021.86 1022.11 1022.31 1022.29 1022.38 1022.10 1021.89 1021.70 1021.54 1021.52 1021.46 1021.57 1021.55 1021.58 1021.49 1021.36 1021.32 1021.22 1021.02
1013.96 1014.56 1015.04 1015.39 1016.07 1016.69 1017.27 1017.83 1018.32 1018.80 1019.20 1019.31 1019.46 1019.62 1019.66 1019.82 1020.09 1020.40 1020.65 1020.89 1021.06 1021.38 1021.58 1021.80 1022.01 1022.37 1022.41 1022.36 1022.63 1022.93 1022.61 1022.20 1021.80 1021.66 1021.61 1021.59 1021.50 1021.50 1021.50 1021.34 1021.17 1021.06 1020.93
1014.49 1014.69 1014.97 1015.36 1015.90 1016.46 1016.94 1017.64 1018.35 1018.84 1019.25 1019.58 1019.74 1019.80 1019.79 1019.80 1019.96 1020.18 1020.45 1020.71 1020.89 1021.06 1021.33 1021.46 1021.57 1021.85 1022.21 1022.34 1022.37 1022.72 1023.03 1023.01 1022.67 1022.00 1021.81 1021.67 1021.63 1021.61 1021.51 1021.47 1021.36 1021.18 1020.98
1015.14 1015.37 1015.68 1015.87 1016.10 1016.48 1016.94 1017.58 1018.12 1018.59 1019.17 1019.34 1019.43 1019.58 1019.69 1019.70 1019.81 1019.92 1020.17 1020.50 1020.71 1020.85 1021.04 1021.05 1021.17 1021.50 1021.88 1022.30 1022.38 1022.31 1022.51 1022.75 1022.99 1022.95 1022.29 1021.92 1021.68 1021.56 1021.61 1021.50 1021.34 1021.19 1021.07
1015.88 1016.08 1016.21 1016.34 1016.65 1016.93 1017.23 1017.49 1017.97 1018.49 1018.75 1018.96 1019.23 1019.44 1019.64 1019.69 1019.68 1019.75 1019.88 1020.17 1020.43 1020.62 1020.70 1020.86 1020.98 1021.16 1021.40 1021.75 1022.03 1022.26 1022.47 1022.58 1022.67 1023.01 1022.84 1022.20 1021.76 1021.40 1021.39 1021.40 1021.40 1021.22 1021.01
1016.95 1017.01 1017.11 1017.03 1017.07 1017.21 1017.50 1017.73 1017.96 1018.35 1018.72 1019.10 1019.30 1019.46 1019.41 1019.55 1019.65 1019.54 1019.55 1019.75 1019.95 1020.20 1020.45 1020.52 1020.70 1020.89 1021.03 1021.18 1021.35 1021.53 1021.69 1022.01 1022.38 1022.61 1022.76 1022.46 1022.41 1021.75 1021.38 1021.29 1021.27 1021.16 1020.93
Thickness
5712 5713 5711 5709 5706 5704 5703 5700 5698 5695 5694 5692 5689 5687 5683 5682 5683 5684 5685 5687 5689 5690 5694 5696 5697 5698 5699 5698 5700 5700 5701 5701 5701 5702 5702 5702 5702 5702 5702 5701 5700 5699 5698
5721 5716 5714 5712 5709 5707 5704 5702 5700 5697 5695 5693 5690 5689 5686 5684 5682 5682 5682 5683 5685 5686 5689 5691 5692 5694 5697 5696 5697 5697 5698 5699 5699 5699 5699 5699 5698 5698 5698 5698 5698 5697 5696
5724 5719 5717 5716 5712 5709 5706 5704 5702 5700 5698 5696 5693 5691 5688 5684 5682 5680 5680 5680 5681 5682 5684 5685 5687 5690 5692 5692 5694 5694 5694 5696 5696 5696 5695 5695 5694 5694 5695 5695 5695 5694 5694
5726 5721 5719 5716 5714 5712 5710 5708 5705 5703 5701 5699 5696 5692 5689 5685 5683 5681 5679 5678 5678 5679 5680 5682 5684 5686 5688 5688 5690 5689 5690 5691 5691 5691 5689 5690 5690 5690 5691 5691 5691 5690 5690
5725 5722 5718 5716 5715 5714 5712 5710 5708 5705 5703 5700 5698 5695 5691 5688 5685 5683 5681 5679 5677 5676 5677 5678 5680 5682 5684 5685 5686 5686 5686 5687 5687 5686 5687 5687 5686 5687 5687 5686 5686 5686 5686
5724 5721 5718 5716 5715 5713 5711 5710 5709 5707 5704 5702 5699 5696 5693 5690 5688 5685 5683 5682 5680 5678 5678 5679 5680 5681 5682 5684 5685 5685 5684 5685 5684 5684 5685 5684 5684 5685 5684 5684 5683 5682 5682
5723 5721 5718 5717 5715 5713 5711 5710 5708 5707 5704 5702 5699 5697 5694 5692 5690 5687 5685 5683 5682 5682 5681 5681 5681 5682 5683 5684 5684 5683 5683 5683 5682 5682 5682 5682 5681 5682 5681 5680 5679 5679 5679
5724 5720 5718 5716 5715 5712 5711 5709 5707 5705 5704 5702 5700 5698 5695 5692 5691 5689 5687 5686 5685 5683 5682 5681 5682 5682 5681 5682 5683 5682 5681 5680 5680 5679 5679 5678 5677 5677 5676 5676 5676 5676 5674
5723 5719 5716 5714 5713 5711 5710 5708 5706 5705 5703 5701 5699 5698 5696 5693 5690 5688 5687 5685 5684 5684 5682 5682 5681 5680 5681 5682 5681 5682 5681 5680 5679 5677 5676 5675 5674 5673 5673 5673 5672 5671 5671
5721 5718 5715 5713 5711 5710 5708 5706 5704 5703 5701 5699 5697 5695 5693 5691 5689 5687 5686 5684 5683 5681 5680 5680 5679 5679 5679 5679 5678 5678 5678 5677 5675 5673 5672 5671 5671 5670 5669 5668 5668 5667 5665
5718 5717 5715 5712 5709 5707 5706 5704 5702 5701 5699 5696 5694 5692 5692 5690 5688 5686 5684 5683 5681 5680 5679 5679 5678 5677 5677 5676 5675 5675 5674 5672 5671 5668 5668 5667 5667 5665 5664 5663 5663 5663 5662
5714 5715 5713 5711 5707 5705 5704 5702 5700 5698 5696 5695 5693 5690 5689 5688 5687 5686 5683 5682 5681 5680 5679 5678 5678 5677 5677 5676 5675 5674 5672 5669 5667 5665 5664 5663 5662 5661 5660 5659 5659 5658 5658
5715 5712 5711 5709 5707 5704 5703 5700 5698 5697 5695 5692 5691 5689 5688 5687 5685 5684 5682 5681 5680 5680 5679 5677 5677 5675 5674 5673 5672 5671 5669 5667 5665 5663 5662 5659 5658 5657 5656 5655 5654 5654 5654
5712 5711 5710 5708 5706 5704 5702 5699 5697 5695 5693 5691 5690 5688 5687 5684 5682 5680 5679 5678 5677 5677 5675 5674 5673 5672 5672 5670 5669 5668 5666 5664 5661 5659 5656 5655 5654 5653 5652 5651 5650 5650 5649
5711 5711 5710 5709 5705 5702 5700 5698 5696 5693 5691 5689 5687 5685 5684 5681 5679 5678 5677 5675 5674 5673 5671 5669 5667 5666 5665 5664 5663 5662 5660 5658 5655 5653 5651 5650 5649 5648 5647 5646 5645 5644 5643
5714 5711 5710 5707 5706 5703 5699 5696 5694 5691 5689 5686 5684 5682 5680 5678 5676 5675 5672 5669 5668 5666 5665 5663 5662 5661 5659 5658 5656 5655 5653 5651 5650 5647 5645 5643 5640 5639 5638 5638 5637 5637 5636
5718 5715 5710 5707 5705 5701 5698 5694 5692 5689 5685 5683 5681 5680 5677 5675 5672 5671 5668 5664 5661 5659 5657 5655 5654 5652 5650 5649 5648 5646 5646 5645 5643 5641 5639 5636 5633 5630 5628 5627 5627 5627 5626
5720 5714 5710 5707 5702 5699 5695 5692 5690 5688 5684 5681 5679 5677 5674 5671 5668 5665 5661 5658 5655 5654 5652 5649 5646 5644 5641 5639 5638 5637 5636 5635 5634 5633 5632 5629 5625 5621 5619 5618 5616 5615 5616
5719 5714 5708 5704 5699 5695 5692 5688 5685 5683 5680 5677 5674 5671 5668 5665 5662 5658 5655 5652 5649 5647 5645 5642 5640 5638 5634 5632 5631 5630 5628 5625 5623 5622 5620 5619 5616 5612 5610 5608 5606 5605 5604
5719 5714 5708 5702 5697 5692 5688 5683 5679 5677 5674 5671 5668 5665 5663 5660 5657 5654 5651 5647 5645 5642 5639 5637 5634 5631 5628 5625 5625 5623 5620 5617 5614 5611 5609 5607 5604 5602 5600 5597 5596 5595 5594
5713 5710 5706 5699 5694 5688 5682 5676 5671 5669 5667 5664 5662 5659 5657 5655 5653 5649 5646 5643 5641 5638 5635 5631 5627 5623 5618 5615 5612 5611 5608 5606 5604 5602 5599 5594 5591 5589 5587 5586 5585 5584 5583
5709 5705 5700 5697 5691 5685 5680 5675 5670 5666 5662 5660 5657 5654 5652 5650 5646 5643 5639 5636 5633 5629 5625 5621 5617 5612 5609 5606 5601 5593 5592 5593 5593 5591 5588 5585 5582 5579 5576 5575 5574 5573 5572
5698 5696 5695 5691 5686 5681 5676 5670 5664 5660 5655 5652 5648 5647 5645 5643 5640 5636 5632 5629 5626 5622 5618 5614 5611 5607 5601 5597 5593 5587 5578 5577 5572 5577 5576 5574 5571 5568 5566 5563 5560 5558 5558
5685 5685 5683 5681 5679 5674 5669 5664 5660 5655 5649 5646 5644 5642 5639 5636 5632 5629 5625 5621 5617 5614 5611 5608 5605 5600 5595 5588 5584 5580 5573 5567 5560 5559 5561 5559 5557 5555 5553 5551 5549 5546 5544
5671 5670 5670 5670 5668 5664 5659 5656 5651 5647 5644 5641 5637 5634 5630 5628 5624 5621 5617 5613 5608 5605 5603 5599 5596 5593 5588 5582 5576 5570 5563 5557 5552 5546 5542 5544 5546 5545 5543 5540 5536 5534 5531
5657 5656 5656 5657 5657 5655 5651 5646 5643 5639 5634 5631 5627 5624 5620 5618 5615 5612 5609 5606 5602 5597 5593 5590 5587 5583 5579 5574 5569 5563 5557 5550 5543 5535 5528 5527 5525 5529 5528 5525 5522 5519 5517